Location: Doutre
(48.7697°N, 2.6708°E)
Time: 03:47:09
(UTC+00:00)

Daily predictions for brighter satellites

Satellite Brightness Start Highest point End
(mag) Time Altitude Azimuth Time Altitude Azimuth Time Altitude Azimuth
Cosmos 468 4.5 00:03:47 31° SSW 00:06:24 90° WNW 00:11:45 10° NNE
Cosmos 2082 Rocket 3.0 00:01:52 10° NW 00:06:56 36° WSW 00:09:02 27° SSW
COSMOS 2455 4.3 00:04:46 18° SE 00:07:13 24° ESE 00:11:52 10° ENE
MetOp-A 3.5 00:06:33 40° SSW 00:07:35 55° WSW 00:11:20 10° NNW
Nadezhda 1 Rocket 4.1 00:04:29 27° SSW 00:07:59 67° WNW 00:14:12 10° N
Cosmos 2278 Rocket 3.5 00:06:51 10° WSW 00:12:01 35° NW 00:17:12 10° NNE
Cosmos 1869 4.0 00:09:09 10° N 00:12:25 38° ENE 00:13:40 27° ESE
CZ-4C R/B 4.1 00:12:31 10° NNE 00:15:55 35° E 00:16:54 29° SE
NOSS 3-1 (A) 4.5 00:14:35 17° SE 00:15:58 19° ESE 00:19:35 10° ENE
Cosmos 1356 Rocket 3.9 00:12:38 10° N 00:16:34 52° ENE 00:18:25 28° SE
SL-8 R/B 3.7 00:15:45 28° SW 00:18:05 56° SSE 00:22:44 10° E
Cosmos 1452 Rocket 3.9 00:13:44 10° NNW 00:18:47 48° WSW 00:20:54 31° SSW
Cosmos 1992 Rocket 4.2 00:13:42 10° NNW 00:18:54 67° ENE 00:22:25 21° SE
USA 308 3.8 00:23:07 25° SE 00:23:07 25° SE 00:26:14 10° ENE
Cosmos 1908 Rocket 4.0 00:19:21 10° N 00:23:44 56° ENE 00:26:03 26° SE
NOSS 3-1 (C) 3.1 00:22:32 34° S 00:24:24 56° ESE 00:29:47 10° NE
Cosmos 972 Rocket 4.4 00:27:03 10° NNW 00:32:35 52° WSW 00:34:55 30° SSW
Cosmos 967 Rocket 4.5 00:29:03 25° SSW 00:33:07 85° SE 00:39:38 10° NE
CZ-3B R/B 4.3 00:28:33 24° SSW 00:33:09 66° SE 01:03:16 10° ENE
COSMOS 2406 3.6 00:29:09 10° NW 00:34:33 46° WSW 00:37:01 29° SSW
Cosmos 2341 Rocket 4.0 00:28:29 10° NNW 00:34:45 77° W 00:38:22 26° S
SL-8 Rocket 4.0 00:32:20 10° NNW 00:38:27 69° W 00:41:58 27° S
SL-4 R/B 2.1 00:42:23 36° SE 00:42:23 36° SE 00:45:00 10° E
Cosmos 1782 Rocket 4.4 00:37:52 10° N 00:42:07 45° ENE 00:45:03 18° SE
NOSS 7 (E) 4.4 00:41:39 10° NW 00:44:42 48° SW 00:44:54 47° SW
Cosmos 1943 Rocket 4.5 00:43:55 10° W 00:47:52 19° NW 00:51:49 10° N
Cosmos 2297 3.7 00:45:21 28° SSW 00:48:31 75° ESE 00:54:15 10° NNE
DELTA 2 DEB (DPAF) 3.6 00:49:01 10° NNE 00:52:34 68° ESE 00:53:47 37° S
Lacrosse 4 Rocket 1.7 00:48:34 10° NNW 00:52:46 66° NE 00:56:30 13° SE
USA 59 Rocket 2.2 00:52:02 10° NW 00:53:22 12° NNW 00:54:40 10° N
Cosmos 2369 Rocket 2.1 00:50:46 27° SSW 00:53:58 89° WNW 00:59:37 10° NNE
BREEZE-M DEB (TANK) 4.3 00:29:51 10° W 00:54:52 87° SSW 00:59:37 10° ESE
USA 290 2.2 00:53:36 10° NNW 00:56:42 60° WSW 00:57:15 49° SSW
CZ-2C R/B 3.7 00:55:17 22° SW 00:57:23 28° W 01:01:53 10° NW
ADEOS Rocket 3.9 00:55:31 10° NNE 01:01:26 39° E 01:05:49 15° SSE
Cosmos 2228 Rocket 3.8 00:59:27 25° SW 01:01:32 41° WNW 01:05:42 10° N
Lacrosse 5 rocket 3.7 01:05:01 10° NW 01:07:45 21° N 01:10:24 10° NE
Geosat 4.3 01:03:11 10° NNE 01:08:09 63° NW 01:11:26 21° SW
USA 276 1.9 01:09:04 28° W 01:10:23 79° N 01:13:24 10° ENE
Cosmos 1818 3.6 01:09:43 25° SSW 01:12:51 68° SE 01:18:17 10° NE
In-Cosmos 22 Rocket 4.3 01:09:23 22° S 01:12:54 70° E 01:18:29 10° NNE
Cosmos 2239 Rocket 4.5 01:10:28 10° N 01:16:41 90° ENE 01:21:32 17° S
Cosmos 1300 Rocket 3.5 01:12:32 10° NNW 01:16:51 66° W 01:19:07 26° S
Cosmos 1315 Rocket 4.3 01:15:20 10° NW 01:18:12 20° W 01:19:10 19° WSW
ARIANE 6 FM1 Upper Stage 3.0 01:16:12 21° WSW 01:18:53 62° NW 01:22:57 10° NE
CENTAUR R/B 4.4 01:19:51 10° NW 01:27:15 44° NNE 01:35:55 10° ESE
Cosmos 1703 Rocket 4.2 01:25:41 23° SW 01:27:59 43° WNW 01:32:11 10° N
Cosmos 2181 Rocket 4.4 01:25:44 21° SW 01:29:58 54° WNW 01:36:14 10° N
Cosmos 1934 Rocket 4.2 01:25:24 10° N 01:31:42 72° E 01:38:03 10° SSE
ATLAS 5 CENTAUR R/B 2.4 01:30:58 13° W 01:33:04 26° NW 01:35:50 10° NNE
Nadezhda 3 Rocket 4.0 01:29:57 20° S 01:34:26 84° W 01:40:44 10° N
Cosmos 546 4.5 01:32:43 10° WNW 01:36:32 89° SSW 01:40:19 10° ESE
Cosmos 1339 Rocket 4.5 01:32:02 18° S 01:36:40 82° E 01:42:47 10° N
Meteor 1-21 Rocket 4.5 01:32:42 18° S 01:37:11 75° E 01:43:07 10° NNE
SeaSat 1 4.4 01:35:08 10° ESE 01:39:25 31° NE 01:43:43 10° NNW
PSLV R/B 4.1 01:36:10 10° N 01:39:56 53° WNW 01:42:06 23° SW
Cosmos 407 Rocket 4.4 01:37:55 14° S 01:41:51 41° ESE 01:46:38 10° NE
SJ 16-02 2.7 01:39:46 13° SSE 01:43:01 31° ESE 01:46:45 10° NE
Nimbus 7 Rocket 4.4 01:37:09 10° NNE 01:43:05 89° ESE 01:47:36 18° SSW
ACS3 Solar Sail 3.0 01:39:03 10° N 01:43:46 28° WNW 01:48:09 12° WSW
Cosmos 921 Rocket 3.2 01:41:09 20° S 01:43:56 63° ESE 01:48:04 10° NNE
USA 308 2.6 01:41:51 19° WSW 01:44:30 82° NNW 01:48:47 10° ENE
COSMOS 2455 3.0 01:47:52 17° SW 01:52:34 73° NW 01:58:37 10° NNE
IDEFIX/ARIANE 42P 2.6 01:47:51 10° NNE 01:53:07 85° WNW 01:57:12 17° SSW
Cosmos 540 Rocket 3.6 01:49:02 10° NNW 01:54:09 76° ENE 01:59:13 10° SSE
SL-8 R/B 3.6 01:55:30 10° W 02:00:16 88° S 02:05:03 10° E
ADEOS II 4.1 01:56:33 10° NE 02:00:33 22° E 02:04:32 10° SE
Iridium 82 4.3 02:00:15 25° SW 02:01:31 45° W 02:04:15 10° N
SL-19 R/B 3.7 01:59:03 13° SSE 02:01:58 81° WSW 02:05:14 10° NNW
Meteor 1-11 4.3 02:00:23 13° S 02:05:19 80° E 02:11:01 10° NNE
NOSS 3-1 (A) 3.1 02:01:56 16° SW 02:05:48 71° NW 02:11:37 10° NE
Resurs 1-4 Rocket 3.3 02:06:06 10° NNE 02:11:00 38° E 02:15:52 10° SSE
Okean 1 Rocket 4.1 02:07:02 10° N 02:11:14 45° ENE 02:15:23 10° SSE
NOSS 3-1 (C) 4.5 02:10:52 10° W 02:15:23 34° NNW 02:20:52 10° NE
Cosmos 1140 Rocket 3.9 02:11:29 15° SW 02:15:35 53° WNW 02:20:36 10° NNE
Cosmos 1656 4.0 02:11:01 12° S 02:15:53 59° ESE 02:21:20 10° NE
H-2A R/B 3.4 02:11:38 10° NNE 02:16:30 36° E 02:21:12 10° SSE
Cosmos 1346 Rocket 3.0 02:14:57 17° SW 02:17:30 48° WNW 02:21:04 10° N
SL-4 R/B 1.7 02:16:06 10° W 02:19:13 60° NNW 02:22:19 10° ENE
Cosmos 1605 Rocket 4.0 02:13:05 10° N 02:19:26 89° W 02:25:38 10° S
H-2A R/B 4.2 02:17:27 10° SE 02:20:52 31° ENE 02:24:21 10° N
COSMOS 2441 4.4 02:15:58 10° NNE 02:20:52 82° ESE 02:25:39 11° SSW
Cosmos 1763 Rocket 3.6 02:20:57 10° NNW 02:25:53 54° WSW 02:30:46 10° S
Cosmos 371 Rocket 3.3 02:23:01 14° SSW 02:27:15 77° WNW 02:32:06 10° NNE
Cosmos 304 Rocket 3.9 02:25:25 13° SW 02:29:32 64° WNW 02:34:18 10° NNE
Lacrosse 4 Rocket 3.1 02:27:28 10° WNW 02:30:02 16° WSW 02:31:50 13° SW
Cosmos 2297 Rocket 2.5 02:28:22 10° NNW 02:34:03 76° ENE 02:39:43 10° SSE
OPS 8737 4.5 02:34:14 10° NW 02:37:14 42° SW 02:40:13 10° SSE
NOSS 2-2 (D) 3.5 02:34:01 10° NW 02:37:37 79° NE 02:42:29 10° SE
Cosmos 2369 Rocket 4.1 02:34:37 10° W 02:38:47 21° NW 02:43:00 10° N
Cosmos 1025 Rocket 3.0 02:34:52 10° S 02:39:12 83° W 02:43:36 10° N
FENGYUN 3A 4.2 02:36:21 10° N 02:41:29 46° WNW 02:46:33 10° SW
MOZ.5/SAFIR/RUBIN 5/SL-8 3.9 02:37:02 10° S 02:41:33 56° W 02:46:06 10° NNW
USA 276 2.2 02:40:19 10° WNW 02:43:16 73° N 02:46:20 10° E
CZ-2D R/B 2.6 02:38:23 10° NNE 02:43:50 65° ESE 02:49:11 10° S
Lacrosse 5 rocket 2.8 02:41:50 10° NW 02:45:01 33° NNE 02:48:06 10° E
ADEOS Rocket 3.8 02:41:02 10° N 02:46:58 41° WNW 02:52:23 10° SW
DMSP B5D2-2 4.3 02:47:27 10° S 02:52:35 53° W 02:57:44 10° NNW
ALOS 2.3 02:48:43 10° NNE 02:53:18 79° ESE 02:57:50 10° S
NOSS 2-2 (C) 4.0 02:50:09 10° WNW 02:53:44 39° SW 02:58:33 10° SSE
ATLAS 3B R/B 4.2 02:47:50 10° S 02:54:38 37° ESE 03:01:39 10° NE
Cosmos 468 Rocket 4.0 02:51:49 10° NNW 02:56:51 59° WSW 03:01:51 10° S
ARGOS 4.4 02:53:05 10° NNE 02:58:07 39° E 03:03:08 10° SSE
Spot 2 4.2 02:56:28 10° SSE 03:00:41 77° ENE 03:04:45 10° NNW
Cosmos 2360 4.3 02:55:08 10° SSW 03:00:49 78° WNW 03:06:34 10° NNE
Cosmos 2263 Rocket 3.9 02:56:09 10° NNW 03:01:22 39° NE 03:06:34 10° ESE
Cosmos 1455 Rocket 3.2 03:00:07 10° N 03:04:28 82° E 03:08:47 10° SSE
